Regional Weather Roundup
Issued by NWS

Home | Current Version | Previous Version | Graphics & Text | Print | Product List | Glossary On
Versions: 1 2 3 4 5 6 7 8 9 10 11 12 13 14 15 16 17 18 19 20 21 22 23 24 25 26 27 28 29 30 31 32 33 34 35 36 37 38 39 40 41 42 43 44 45 46 47 48 49 50
729
ASUS43 KOAX 221310
RWRNE

WEATHER ROUNDUP FOR NEBRASKA
NATIONAL WEATHER SERVICE OMAHA NE
700 AM CST WED FEB 22 2017

NOTES: SATELLITE DATA IS BEING USED TO AUGMENT CLOUD COVER ABOVE
       12000 FEET.
       "FAIR" INDICATES FEW OR NO CLOUDS BELOW 12,000 FEET WITH NO
       SIGNIFICANT WEATHER AND/OR OBSTRUCTIONS TO VISIBILITY.

  * THESE STATIONS DO NOT REPORT WEATHER SUCH AS RAIN...SNOW OR FOG.

NEZ001>004-019>022-054>056-221400-
NEBRASKA PANHANDLE

CITY           SKY/WX    TMP DP  RH WIND       PRES   REMARKS
SCOTTSBLUFF    CLOUDY    43  27  53 W17G26    29.86R
ALLIANCE       CLEAR     37  30  75 W17       29.79F WCI  27
CHADRON        CLOUDY    43  30  60 S6        29.78S
KIMBALL        CLEAR     40  26  57 NW24G36   29.86S WCI  30
SIDNEY         CLEAR     38  27  64 W13       29.84S WCI  30
$$

NEZ057>060-069>072-079>082-221400-
SOUTHWEST NEBRASKA

CITY           SKY/WX    TMP DP  RH WIND       PRES   REMARKS
NORTH PLATTE   CLEAR     30  25  81 NW8       29.79R WCI  22
IMPERIAL       CLEAR     38  29  70 NW9       29.84R WCI  31
LEXINGTON      CLEAR     40  27  59 NW13      29.75R WCI  33
MCCOOK         CLEAR     45  29  53 NW15      29.79R
OGALLALA       CLEAR     37  31  81 CALM      29.84R
$$

NEZ005>010-023>029-035>040-094-221400-
NORTH CENTRAL NEBRASKA

CITY           SKY/WX    TMP DP  RH WIND       PRES   REMARKS
VALENTINE      CLEAR     40  33  76 W15       29.73R WCI  32
AINSWORTH      CLEAR     38  34  82 SW13      29.71S WCI  31
BROKEN BOW     CLEAR     48  32  53 NW16      29.70F
O`NEILL        CLEAR     43  33  68 NW7       29.68S
ORD            CLEAR     36  28  73 N7        29.69R WCI  30
THEDFORD       CLEAR     39  32  76 NW10      29.78R WCI  32
$$

NEZ041-046>049-061>064-073>077-083>087-221400-
SOUTH CENTRAL NEBRASKA

CITY           SKY/WX    TMP DP  RH WIND       PRES   REMARKS
GRAND ISLAND   FAIR      35  29  78 W8        29.68F WCI  29
AURORA         FAIR      34  26  74 W8        29.68R WCI  27
HASTINGS       FAIR      38  27  64 W9        29.69R WCI  31
HEBRON         FAIR      46  33  61 SW9       29.68R
HOLDREGE       FAIR      44  24  44 W10       29.72S
KEARNEY *      FAIR      37  25  60 NW7       29.72R WCI  32
YORK           FAIR      37  28  70 SW8       29.67F WCI  31
$$

NEZ011>018-030>034-042>045-221400-
NORTHEAST NEBRASKA

CITY           SKY/WX    TMP DP  RH WIND       PRES   REMARKS
NORFOLK        FAIR      35  29  78 NW5       29.64S WCI  31
ALBION         FAIR      35  29  79 CALM      29.66S
BLAIR          FAIR      45  34  66 S3        29.66F
FREMONT        FAIR      40  32  75 SE3       29.65F
TEKAMAH        FAIR      37  32  82 S9        29.63F WCI  30
WAYNE          FAIR      34  31  87 S3        29.64S
$$

NEZ050>053-065>068-078-088>093-221400-
SOUTHEAST NEBRASKA

CITY           SKY/WX    TMP DP  RH WIND       PRES   REMARKS
LINCOLN        FAIR      40  33  76 S3        29.68F
OMAHA EPPLEY   FAIR      45  35  68 SE12      29.67F
BEATRICE       FAIR      49  36  61 S8        29.66F
FALLS CITY     FAIR      46  34  62 S7        29.71F
NEBRASKA CITY  FAIR      41  30  65 S3        29.68F
PLATTSMOUTH    FAIR      45  32  61 CALM      29.68F
$$

NEZ044-045-051>053-067-221400-
OMAHA AREA

CITY           SKY/WX    TMP DP  RH WIND       PRES   REMARKS
OMAHA EPPLEY   FAIR      45  35  68 SE12      29.67F
BLAIR          FAIR      45  34  66 S3        29.66F
FREMONT        FAIR      40  32  75 SE3       29.65F
MILLARD        FAIR      45  36  71 CALM      29.67S
OFFUTT AFB     CLEAR     42  34  73 E6        29.66F
PLATTSMOUTH    FAIR      45  32  61 CALM      29.68F
WAHOO          FAIR      37  31  77 NE3       29.66F
$$




USA.gov is the U.S. government's official web portal to all federal, state and local government web resources and services.